Location: Ayer Observatory
(42.2600°N, 71.0700°W)
Time: 08:33:20
(UTC-04:00)

XW-2A - Pass Details

Date: 13 August 2020
Orbit: 428 x 443 km, 97.3° (Epoch: 21 September)

Event Time Altitude Azimuth Distance (km) Brightness Sun altitude
Exits shadow 20:17:34 - 121° (ESE) 1,705 ? -6.0°
Reaches altitude 10° 20:18:07 10° 114° (ESE) 1,526 ? -6.1°
Maximum altitude 20:20:27 18° 69° (ENE) 1,118 ? -6.5°
Drops below altitude 10° 20:22:47 10° 23° (NNE) 1,534 ? -6.9°
Sets 20:25:12 0° 5° (N) 2,407 ? -7.3°
